Regional Weather Roundup
Issued by NWS

Home | Current Version | Previous Version | Text Only | Print | Product List | Glossary On
Versions: 1 2 3 4 5 6 7 8 9 10 11 12 13 14 15 16 17 18 19 20 21 22 23 24 25 26 27 28 29 30 31 32 33 34 35 36
000
ASUS45 KSLC 230110
RWRUT

UTAH REGIONAL WEATHER ROUNDUP
NATIONAL WEATHER SERVICE SALT LAKE CITY UT
700 PM MDT WED OCT 22 2014

UTZ001>011-023>025-230200-

NORTHERN UTAH

CITY           SKY/WX    TMP DP  RH WIND       PRES   REMARKS
BRIGHAM CITY   PTCLDY    57  27  31 CALM      30.17S
HILL AFB       PTCLDY    55  31  39 NW3       30.17S
LOGAN          CLEAR     53  30  41 N3        30.16S
OGDEN          PTCLDY    54  33  45 NW3       30.16S
PROVO AIRPORT  PTCLDY    55  37  50 VRB5      30.15S
SALT LAKE CITY MOCLDY    57  35  43 NW7       30.16R
VERNAL         CLEAR     53  37  54 CALM      30.15R
WENDOVER       PTCLDY    54  28  37 CALM      30.16S
HEBER CITY     PTCLDY    52  25  35 SW6       30.18R
WEST JORDAN    CLEAR     52  37  58 W6        30.18R

$$

UTZ012>022-026-027-230200-

SOUTHERN/CENTRAL UTAH

CITY           SKY/WX    TMP DP  RH WIND       PRES   REMARKS
BLANDING       PTCLDY    62  29  28 CALM      30.25R
BRYCE CANYON   CLEAR     53  25  33 NW12      30.26R
CEDAR CITY     PTCLDY    57  29  34 NE3       30.17R
DELTA          CLEAR     58  29  33 W5        30.15S
HANKSVILLE       N/A     64  32  29 NE6       30.10R
MILFORD        CLEAR     58  31  35 N6        30.14R
MOAB/CYNLANDS  MOCLDY    65  33  30 N7        30.08R
PRICE          PTCLDY    60  25  26 NW10      30.16R
ST GEORGE      PTCLDY    75  34  22 W6        30.05R
KANAB            N/A     63  27  25 W9        30.17

$$

REGIONAL REPORTS     COLORADO/ARIZONA

CITY           SKY/WX    TMP DP  RH WIND       PRES   REMARKS
CRAIG, CO      CLEAR     44  36  73 CALM      30.21R
GRAND JUNCTION PTCLDY    57  38  48 NE5       30.12R
RIFLE          PTCLDY    54  43  66 SE7       30.18R
MONTROSE       CLOUDY    60  41  49 S3        30.19R
CORTEZ         CLEAR     57  35  43 W5        30.19S
PAGE, AZ       CLEAR     71  36  27 NE5       30.08R
GRAND CANYON   PTCLDY    54  33  45 CALM      30.24R
KINGMAN        PTCLDY    70  39  32 S7        30.06R
FLAGSTAFF      PTCLDY    57  35  43 SW5       30.26R

$$

REGIONAL REPORTS    NEVADA/IDAHO/WYOMING

CITY           SKY/WX    TMP DP  RH WIND       PRES   REMARKS
LAS VEGAS, NV    N/A     81  27  14 CALM      29.96R
ELY            CLEAR     60  19  20 SW9       30.17R
ELKO           MOCLDY    59  22  24 CALM      30.10S
POCATELLO, ID  CLEAR     52  24  33 S8        30.16R
BURLEY         CLOUDY    54  32  43 N5        30.10S
EVANSTON, WY   PTCLDY    45  19  35 W10       30.23R
ROCK SPRINGS   PTCLDY    45  20  36 NW7       30.21R
KEMMERER       PTCLDY    41  18  38 W8        30.23R

$$



USA.gov is the U.S. government's official web portal to all federal, state and local government web resources and services.